Location: Bremen
(53.0793°N, 8.8017°E)
Time: 02:36:05
(UTC+01:00)

deb Explorer IX - Pass Details

Date: 12 December 2021
Orbit: 544 x 1082 km, 38.8° (Epoch: 16 January)

Event Time Altitude Azimuth Distance (km) Brightness Sun altitude
Rises 07:42:35 0° 220° (SW) 3,537 ? -6.6°
Reaches altitude 10° 07:46:32 10° 198° (SSW) 2,470 ? -6.1°
Maximum altitude 07:49:29 14° 167° (SSE) 2,083 ? -5.7°
Drops below altitude 10° 07:52:16 10° 136° (SE) 2,275 ? -5.4°
Sets 07:55:38 0° 111° (ESE) 3,078 ? -5.0°
